Regional Weather Roundup
Issued by NWS

Home | Current Version | Previous Version | Graphics & Text | Print | Product List | Glossary On
Versions: 1 2 3 4 5 6 7 8 9 10 11 12 13 14 15 16 17 18 19 20 21 22 23 24 25 26 27 28 29 30 31 32 33 34 35 36 37 38 39 40 41 42 43 44 45 46 47 48 49 50
000
ASUS45 KABQ 252210
RWRNM
NEW MEXICO REGIONAL WEATHER ROUNDUP
NATIONAL WEATHER SERVICE ALBUQUERQUE NM
400 PM MDT MON JUL 25 2016

NOTE: "FAIR" MEANS FEW OR NO CLOUDS BELOW 12,000 FEET AGL WITH NO
       SIGNIFICANT WEATHER OR OBSTRUCTIONS TO VISION.

      THIS PRODUCT IS RELEASED AS TWO VERSIONS.  ONE VERSION NEAR
      THE TOP OF THE HOUR CONTAINING PRELIMINARY DATA FROM ALBUQUERQUE
      AND OTHER STATIONS.  A FINAL VERSION WITH ADDITIONAL DATA IS
      ISSUED ABOUT 10 MINUTES AFTER THE HOUR.

NMZ501-503-504-510>518-252300-
NORTHWEST PLATEAU/NORTHCENTRAL MOUNTAINS

CITY           SKY/WX    TMP DP  RH WIND       PRES   REMARKS
FARMINGTON     FAIR      95  43  16 W12G17    30.11F
LOS ALAMOS     RAIN      71  45  39 W15G39    30.35S
SANTA FE       CLOUDY    81  49  32 N10G17    30.25R
TAOS           CLOUDY    70  43  37 SE26G32   30.35S
ANGEL FIRE     CLOUDY    60  52  75 E7        30.50S

$$
NMZ402-403-502-505>509-252300-
WESTCENTRAL MOUNTAINS/SOUTHWEST MOUNTAINS

CITY           SKY/WX    TMP DP  RH WIND       PRES   REMARKS
GALLUP         PTSUNNY   85  43  22 E13       30.23F
GRANTS         CLOUDY    81  46  28 W14G22    30.29R
SILVER CITY    FAIR      92  50  23 S12G17    30.14F

$$
NMZ407-409-411-412-252300-
SOUTHERN DESERTS

CITY           SKY/WX    TMP DP  RH WIND       PRES   REMARKS
LORDSBURG      FAIR      97  48  19 CALM      30.04F
DEMING         PTSUNNY   97  50  20 SE6G18    30.03F
LAS CRUCES     FAIR      98  42  14 E9G16     30.05F
HOLLOMAN AFB   FAIR      99  48  18 VRB7      30.00F HX  95
ALAMOGORDO     PTSUNNY   97  46  17 SW5       30.02F
T OR C         FAIR      94  50  22 S16G22    30.07F

$$
NMZ519>523-252300-
CENTRAL VALLEYS/CENTRAL HIGHLANDS

CITY           SKY/WX    TMP DP  RH WIND       PRES   REMARKS
ALBUQUERQUE    PTSUNNY   93  44  18 W10       30.13F
DOUBLE EAGLE   PTSUNNY   90  48  24 VRB6      30.18F
MORIARTY ARPT  FAIR      90  44  20 S16G24    30.23F
CLINES CORNERS RAIN      61  55  81 E17G30    30.35R
BELEN          FAIR      94  42  16 E7        30.12F
SOCORRO        FAIR      97  41  14 E10G16    30.08F

$$
NMZ524>526-539-540-252300-
SOUTHCENTRAL MOUNTAINS

CITY           SKY/WX    TMP DP  RH WIND       PRES   REMARKS
RUIDOSO          N/A     86  45  23 SE16G23   30.29F

$$
NMZ527>531-252300-
NORTHEAST HIGHLANDS/NORTHEAST PLAINS

CITY           SKY/WX    TMP DP  RH WIND       PRES   REMARKS
LAS VEGAS      FAIR      77  48  35 W10       30.32S
RATON          FAIR      73  47  39 N20G25    30.26F
CLAYTON        FAIR      87  61  41 SE14G22   30.17F

$$
NMZ532>537-252300-
EASTCENTRAL PLAINS

CITY           SKY/WX    TMP DP  RH WIND       PRES   REMARKS
TUCUMCARI      FAIR      99  49  18 VRB5G17   30.04F HX  96
CANNON AFB     PTSUNNY   95  52  23 SE5       30.07F
CLOVIS AIRPORT FAIR      93  55  27 SE3       30.08S

$$
NMZ028-029-538-252300-
SOUTHEAST PLAINS

CITY           SKY/WX    TMP DP  RH WIND       PRES   REMARKS
ROSWELL        FAIR      99  51  19 E7G18     30.00F HX  96
ARTESIA        FAIR      99  54  22 SE10G17   30.00F HX  96
CARLSBAD       PTSUNNY   99  54  22 NE9       29.97F HX  97
HOBBS          MOSUNNY   97  50  20 E9G18     30.04F


$$



USA.gov is the U.S. government's official web portal to all federal, state and local government web resources and services.